Temperature
19 19 19 19 19 19 19 19 18 19 19 19 19 19 18 18 18 18 18 18 18 18 18 18 18 18 18 18 18 18 18 18 18 17 18 18 18 17 17 17 17 17 17
19 19 19 19 19 19 19 19 19 19 19 19 19 19 19 19 18 18 18 18 18 18 18 18 18 18 18 18 18 18 18 18 18 18 18 17 17 17 17 17 17 17 17
19 19 19 19 19 19 19 19 19 19 19 19 19 19 19 19 18 18 18 18 18 18 18 18 18 18 18 18 18 18 18 18 18 18 17 17 17 17 17 17 17 17 17
19 19 19 19 19 19 19 19 19 19 19 19 19 19 19 19 18 18 18 18 18 18 18 18 18 18 18 18 18 18 18 18 18 17 17 17 17 17 17 17 17 17 17
19 19 19 19 19 19 19 18 18 19 19 19 19 19 19 19 19 18 18 18 18 18 17 18 18 17 18 18 18 18 18 17 17 17 17 17 17 17 17 17 17 17 17
19 19 19 19 19 19 19 19 18 18 19 19 19 19 19 19 19 18 18 18 18 18 17 17 17 17 17 17 17 17 17 17 17 17 17 17 17 17 17 17 17 17 17
19 19 19 19 19 18 18 18 18 18 18 19 19 19 19 19 19 18 18 18 18 18 17 17 17 17 17 17 17 17 17 17 17 17 17 17 17 17 17 17 17 17 17
19 19 19 19 19 18 18 18 18 18 18 18 18 18 18 19 19 18 18 18 18 18 18 17 17 17 17 17 17 17 17 17 17 17 17 17 17 17 17 17 17 17 16
19 19 19 19 18 18 18 18 18 18 18 18 18 18 18 18 18 18 18 18 18 18 18 17 17 17 17 17 17 17 17 17 17 17 17 17 17 17 17 17 17 16 16
19 19 19 19 18 18 18 18 18 18 18 18 18 18 18 18 18 18 18 18 18 18 17 17 17 17 17 17 17 17 17 17 17 17 17 17 16 16 16 16 16 16 16
19 18 18 18 18 18 18 18 18 18 18 18 18 18 18 18 18 18 18 18 18 17 17 17 17 17 17 17 17 17 16 16 16 16 16 16 16 16 16 16 16 16 16
19 18 18 18 18 18 18 18 18 18 18 18 18 18 18 18 18 18 18 18 17 17 17 17 17 17 16 16 16 16 16 16 16 16 16 16 16 16 16 16 16 16 16
19 19 18 18 18 18 18 18 18 17 17 17 17 17 17 17 17 17 17 17 17 17 17 17 17 16 16 16 16 16 16 16 16 16 16 16 16 16 16 16 15 15 15
19 18 18 18 18 18 18 17 17 17 17 17 17 17 17 17 17 17 17 17 17 17 16 16 16 16 16 16 16 16 16 16 16 16 16 16 15 15 15 15 15 15 15
18 18 18 18 18 18 17 17 17 17 17 17 17 17 16 16 16 17 17 17 17 16 16 16 16 16 16 16 15 15 15 15 15 15 15 15 15 15 15 15 15 15 15
18 18 18 18 18 17 17 17 17 17 16 16 16 16 16 16 16 16 16 16 16 16 16 16 16 16 16 15 15 15 15 15 15 15 15 15 15 15 15 15 15 15 15
18 18 18 17 17 17 17 17 16 16 16 16 16 16 16 16 16 16 16 16 16 16 16 15 15 15 15 15 15 15 15 15 15 15 15 15 15 15 15 15 15 15 15
18 18 17 17 17 17 17 16 16 16 16 16 16 15 15 15 15 15 15 15 15 15 15 15 15 15 15 15 15 15 15 14 15 15 15 15 15 15 14 14 14 14 14
17 17 17 17 17 17 16 16 16 16 16 16 15 15 15 15 15 15 15 15 15 15 15 15 15 15 14 14 14 14 14 14 14 14 14 14 14 14 14 14 14 14 14
17 17 17 17 16 16 16 16 16 16 15 15 15 15 15 15 15 15 15 15 15 15 14 14 14 14 14 14 14 14 14 14 14 14 14 14 14 14 14 14 14 14 14
17 17 16 16 16 16 16 16 15 15 15 15 15 15 15 15 15 15 14 14 14 14 14 14 14 14 14 14 14 13 13 13 13 13 14 14 14 14 14 14 14 14 14
16 16 16 16 16 15 15 15 15 15 15 15 15 15 15 15 15 15 14 14 14 14 14 13 13 13 13 13 13 13 13 13 13 13 13 13 13 13 13 13 13 14 14
16 16 16 16 15 15 15 15 15 15 15 14 14 14 14 14 14 14 14 14 14 14 14 13 13 13 13 13 13 13 13 13 13 13 13 13 13 13 13 13 13 13 13
16 16 16 15 15 15 15 15 15 15 14 14 14 14 14 14 14 14 13 13 13 13 13 13 13 13 13 13 13 13 12 12 12 12 12 12 13 12 12 13 13 13 13
16 15 15 15 15 15 15 15 15 14 14 14 14 14 14 14 14 14 13 13 13 13 13 13 13 13 13 13 12 12 12 12 12 12 12 12 12 12 12 12 12 12 12
15 15 15 15 15 15 15 15 14 14 14 14 14 14 14 14 14 13 13 13 13 13 13 13 13 13 13 12 12 12 12 12 11 11 12 12 12 11 12 12 12 12 12
Wind_Speed
2 1 1 1 2 3 3 2 1 1 1 1 2 3 3 3 5 7 7 9 10 9 8 9 9 9 9 8 8 8 8 8 8 8 9 9 9 10 10 10 10 11 11
2 1 1 1 1 1 1 2 1 2 2 1 1 2 2 3 5 6 8 9 10 9 8 8 7 7 7 7 8 8 9 9 9 8 9 10 10 9 9 9 10 11 11
2 1 1 1 1 1 1 2 1 1 2 2 2 2 2 2 3 5 7 9 9 10 9 8 7 7 7 7 7 7 8 9 9 8 8 8 9 10 10 10 10 11 11
1 1 1 1 1 1 1 1 1 2 1 1 2 2 3 2 3 5 6 7 8 8 9 9 8 7 7 7 6 6 5 6 8 8 8 8 8 8 9 10 10 10 11
2 1 1 1 1 1 1 1 2 1 1 1 2 3 3 4 3 4 4 5 7 8 9 10 9 8 7 7 7 6 6 6 6 7 8 9 9 9 9 9 9 10 11
1 1 1 0 1 2 2 2 2 1 1 1 2 1 2 3 4 4 4 4 5 7 8 8 8 7 8 7 7 7 7 7 7 7 7 8 9 9 10 10 9 9 10
1 1 2 1 1 2 2 1 1 0 1 1 1 1 1 3 4 4 3 3 4 5 7 7 7 7 7 8 8 8 9 8 8 8 8 7 7 8 9 10 10 10 10
1 1 2 1 1 1 1 1 1 1 1 0 1 1 1 0 1 3 4 4 4 4 5 7 7 7 7 6 7 8 8 9 8 8 8 8 8 8 9 9 10 11 11
2 2 2 2 2 1 1 0 1 1 1 1 1 0 1 0 1 1 3 3 4 3 3 4 5 6 7 7 7 8 9 8 8 8 7 7 7 8 8 9 8 9 9
2 1 2 2 2 2 2 1 2 2 2 2 1 0 1 0 1 0 0 2 3 3 2 2 3 3 4 6 6 7 8 8 8 7 6 6 5 5 6 6 8 8 8
2 2 1 1 1 1 1 2 2 2 2 2 2 1 1 0 2 1 1 0 1 1 2 1 1 2 3 4 4 5 6 6 6 6 5 5 4 4 4 5 5 7 8
2 2 1 2 1 0 1 1 1 1 1 3 3 2 1 1 1 1 1 1 1 1 2 2 2 2 3 4 3 5 6 7 6 5 5 4 4 4 4 5 5 6 6
2 3 2 1 0 0 1 1 0 1 1 2 2 2 2 2 2 1 0 1 1 1 1 1 2 2 2 5 4 4 6 7 7 6 6 5 5 5 4 4 5 5 6
3 3 3 2 1 1 1 0 1 0 1 2 2 2 2 2 2 2 1 0 0 0 0 0 1 1 2 4 5 5 5 8 8 7 6 6 7 6 5 5 5 5 6
3 3 3 3 2 1 0 0 0 1 1 1 2 2 1 2 1 1 1 1 0 1 1 1 1 1 1 3 4 4 4 7 8 8 8 7 6 7 7 6 6 6 6
2 2 3 2 2 1 1 0 0 0 0 1 1 1 1 2 2 1 1 1 1 0 1 1 0 1 0 1 2 2 3 6 8 9 9 8 8 8 7 7 7 6 6
3 2 2 2 2 2 1 1 0 0 0 1 2 1 1 1 2 2 2 2 1 0 1 1 1 0 0 0 1 2 4 6 7 9 9 10 10 9 9 8 7 7 7
3 2 3 2 2 2 2 1 1 0 0 0 1 1 1 1 1 2 2 2 1 1 1 2 1 0 1 1 1 3 2 3 5 8 10 11 11 11 10 9 9 8 8
3 2 2 3 2 2 2 2 2 1 1 1 1 0 1 1 1 1 2 2 2 2 1 2 2 1 1 1 1 2 2 2 3 4 8 9 11 12 12 11 10 9 8
3 3 3 3 3 2 2 2 2 1 1 1 1 0 1 0 1 1 1 1 2 2 2 2 2 1 1 1 1 2 2 2 2 3 2 5 8 9 10 10 10 9 9
3 2 2 2 3 3 2 1 1 2 1 1 1 1 1 1 0 1 1 1 1 2 2 2 2 2 1 1 2 2 3 3 2 2 1 3 4 4 6 7 8 9 8
3 3 3 2 3 3 3 2 1 1 2 2 2 2 2 3 2 1 2 1 1 1 2 2 2 2 2 2 2 3 2 3 3 2 1 3 2 2 4 5 8 9 9
3 2 2 2 2 2 3 2 2 2 3 3 3 3 4 3 2 2 3 3 4 4 5 4 3 4 3 2 2 3 3 4 4 3 2 4 2 2 2 5 8 10 10
4 3 3 3 3 3 4 3 2 4 4 4 4 4 3 2 2 1 3 3 4 4 4 4 3 4 4 3 3 4 5 4 4 3 2 3 3 2 3 4 9 10 11
3 4 4 4 4 3 5 4 3 4 4 4 4 4 3 2 2 2 3 4 3 3 4 4 5 5 6 6 5 3 4 3 4 3 2 2 3 3 3 3 6 10 11
3 3 3 3 3 4 6 6 4 4 4 4 3 3 3 3 3 3 3 3 4 4 3 3 4 6 6 7 7 5 4 3 3 3 2 2 2 2 3 2 2 4 7
Wind_Direction
86 97 106 129 159 161 163 184 185 176 173 186 209 176 183 157 151 154 160 162 158 161 170 178 183 191 194 196 199 202 202 203 206 208 212 215 217 223 225 222 219 218 217
73 91 101 89 64 90 134 146 153 143 147 157 165 164 178 160 158 155 160 168 164 161 164 171 177 182 192 199 205 210 211 210 212 215 220 220 219 219 222 227 225 219 218
86 90 102 105 105 148 138 123 120 117 143 156 166 182 178 175 167 168 168 169 173 176 176 174 175 179 186 195 206 210 211 210 207 209 216 220 225 226 226 227 230 226 222
88 78 100 99 186 157 132 136 144 141 142 165 181 185 166 174 174 175 174 174 172 177 181 182 180 181 182 188 192 194 194 203 209 210 214 220 227 227 228 230 232 230 226
79 69 91 23 291 128 113 98 89 79 135 191 206 183 184 175 175 183 175 176 173 174 175 183 187 189 191 194 197 200 202 207 213 218 221 224 230 230 228 231 233 234 233
95 39 117 49 12 54 64 59 70 60 298 270 272 181 191 180 171 176 188 183 176 177 175 178 182 190 197 197 199 205 208 211 213 218 225 231 233 231 229 229 232 233 232
80 50 26 39 64 74 66 78 85 234 252 250 288 319 244 198 178 177 184 170 172 172 171 175 178 185 189 200 206 212 212 217 220 224 228 234 236 233 231 231 231 230 231
67 76 55 23 35 91 67 11 9 323 287 299 271 268 280 161 217 188 171 179 180 179 178 179 185 179 181 179 197 209 215 221 222 225 231 235 240 239 236 234 233 230 231
115 51 56 28 348 14 71 316 320 299 301 309 322 0 311 310 286 167 182 165 160 167 188 179 179 183 184 172 180 202 209 217 223 227 230 237 242 241 239 232 230 229 230
121 108 78 50 10 11 27 343 33 314 307 309 328 6 194 114 243 285 278 147 155 168 180 191 164 158 169 160 163 175 195 209 216 218 225 232 238 240 239 238 231 225 220
148 127 107 85 48 22 16 9 11 354 353 338 325 313 292 228 238 222 237 167 152 163 159 150 121 135 153 145 152 162 174 192 199 207 214 220 226 233 234 234 232 228 224
140 121 102 81 69 39 347 341 348 11 351 334 333 342 344 345 307 252 220 217 188 156 128 139 135 129 135 131 145 158 169 177 186 200 203 210 223 234 234 231 229 228 225
136 130 129 105 163 292 292 307 14 347 339 323 324 323 326 339 338 349 11 254 164 166 154 160 141 120 144 133 148 178 179 184 193 199 204 212 223 229 234 237 233 226 225
139 145 151 151 187 240 284 357 299 255 316 313 324 326 323 344 348 353 350 7 326 237 143 161 108 119 110 131 161 170 174 189 195 197 204 215 220 220 224 227 236 234 229
154 147 159 177 184 165 303 27 5 351 345 342 329 326 330 323 333 345 358 32 244 268 273 198 154 134 131 139 154 174 172 185 194 199 205 212 216 219 221 221 227 233 236
147 158 160 167 163 147 137 120 296 315 11 334 310 340 337 339 338 341 357 5 23 244 276 303 298 144 124 174 162 163 185 189 203 206 208 209 211 213 214 217 221 226 230
166 161 152 153 150 144 140 151 218 56 17 330 326 331 328 345 348 352 352 0 4 27 270 302 356 85 156 284 195 204 204 190 195 206 209 210 212 212 214 215 217 222 229
176 172 165 172 177 166 168 172 226 285 264 299 305 331 317 312 342 333 338 336 326 309 249 277 304 289 264 211 213 246 240 219 198 211 213 215 213 211 213 215 218 221 225
184 177 169 173 182 183 191 196 193 246 286 284 282 303 290 296 283 304 302 312 312 312 279 255 271 267 256 276 265 272 274 257 250 224 211 213 213 213 214 217 220 221 223
192 196 185 181 191 198 200 198 189 215 251 287 312 297 298 300 275 271 275 307 311 310 295 283 271 272 281 316 289 274 277 268 269 265 229 222 215 216 218 221 222 223 223
202 195 198 201 208 214 206 174 215 215 211 259 278 273 260 207 334 293 292 305 299 298 301 295 280 278 297 316 287 280 280 282 259 257 256 239 201 206 215 218 218 220 220
204 201 207 214 227 232 149 143 207 230 224 236 251 253 240 222 195 212 240 257 268 258 281 289 289 281 277 271 283 283 290 301 287 263 259 270 228 225 199 204 206 207 210
201 209 212 214 219 197 164 155 172 237 233 236 241 243 256 243 194 226 237 239 252 253 248 254 263 274 277 270 273 286 283 281 277 275 270 271 268 260 231 214 204 200 204
200 205 213 211 212 198 166 175 217 237 231 233 237 241 244 229 252 272 262 258 248 252 257 253 257 269 274 274 257 257 271 269 263 264 251 263 272 266 259 204 209 207 209
208 209 210 202 203 193 181 191 215 256 240 239 232 231 216 215 225 269 267 268 269 268 267 254 249 254 259 261 258 263 270 274 280 277 265 259 272 278 260 232 218 218 216
216 219 222 215 211 203 195 196 207 256 255 250 230 208 197 197 207 244 263 269 269 273 281 266 253 256 253 251 245 236 251 267 282 287 277 256 277 297 283 258 230 214 222
Height
1530 1530 1531 1531 1532 1532 1532 1532 1532 1532 1532 1533 1534 1535 1537 1538 1539 1539 1541 1542 1543 1544 1546 1547 1548 1550 1551 1552 1553 1554 1554 1555 1556 1557 1558 1559 1559 1561 1562 1563 1564 1565 1567
1530 1531 1531 1532 1532 1532 1532 1532 1532 1532 1532 1533 1533 1534 1536 1537 1538 1538 1539 1541 1542 1543 1544 1545 1547 1548 1549 1550 1551 1552 1553 1553 1554 1555 1556 1556 1557 1558 1559 1560 1562 1563 1565
1531 1531 1531 1532 1532 1532 1532 1532 1532 1532 1533 1533 1533 1534 1535 1536 1537 1537 1538 1539 1540 1542 1543 1544 1545 1546 1547 1548 1549 1550 1550 1551 1552 1553 1553 1554 1555 1556 1557 1558 1559 1561 1562
1531 1532 1532 1532 1532 1532 1533 1533 1532 1532 1533 1533 1533 1534 1534 1535 1535 1536 1537 1538 1539 1540 1542 1542 1544 1545 1545 1546 1547 1547 1548 1549 1550 1550 1551 1552 1553 1553 1555 1556 1557 1558 1559
1532 1532 1532 1532 1533 1533 1533 1533 1533 1533 1532 1533 1533 1533 1534 1534 1534 1535 1536 1537 1538 1539 1540 1541 1542 1543 1543 1544 1545 1545 1546 1547 1547 1548 1549 1550 1551 1552 1552 1553 1554 1555 1556
1532 1532 1532 1532 1533 1533 1533 1533 1532 1533 1533 1533 1533 1533 1533 1533 1533 1534 1535 1536 1537 1538 1538 1539 1540 1541 1541 1542 1543 1543 1544 1545 1545 1546 1547 1548 1549 1549 1550 1551 1551 1552 1553
1531 1532 1532 1532 1532 1532 1532 1532 1532 1532 1533 1532 1532 1532 1532 1532 1532 1533 1534 1535 1535 1536 1537 1537 1538 1539 1539 1540 1541 1541 1542 1543 1544 1545 1546 1546 1547 1547 1547 1548 1548 1549 1550
1531 1532 1531 1532 1532 1532 1532 1532 1532 1532 1532 1532 1532 1531 1531 1532 1531 1532 1532 1533 1534 1535 1536 1536 1536 1537 1538 1538 1539 1540 1540 1541 1542 1542 1543 1544 1544 1544 1545 1545 1546 1546 1547
1530 1530 1530 1531 1531 1531 1531 1531 1531 1531 1531 1531 1531 1531 1531 1531 1531 1531 1532 1532 1533 1534 1535 1535 1535 1535 1536 1536 1537 1537 1538 1539 1539 1540 1540 1541 1542 1542 1542 1542 1543 1543 1544
1529 1529 1529 1530 1530 1530 1530 1530 1531 1531 1531 1531 1531 1531 1531 1531 1530 1530 1531 1531 1532 1532 1533 1534 1534 1533 1534 1535 1535 1535 1536 1536 1537 1537 1538 1538 1539 1539 1539 1539 1540 1541 1541
1528 1528 1528 1529 1529 1529 1529 1529 1529 1530 1530 1530 1530 1530 1530 1530 1530 1530 1530 1530 1531 1531 1531 1532 1532 1532 1532 1533 1533 1533 1534 1534 1535 1535 1535 1536 1536 1536 1537 1537 1537 1538 1539
1527 1527 1527 1527 1527 1528 1528 1528 1528 1528 1529 1529 1529 1529 1529 1529 1528 1529 1529 1529 1529 1530 1530 1530 1530 1531 1531 1531 1531 1531 1531 1532 1532 1532 1533 1533 1533 1534 1534 1534 1535 1535 1536
1525 1525 1526 1526 1526 1526 1527 1527 1527 1527 1527 1528 1528 1528 1528 1528 1528 1528 1528 1528 1528 1528 1529 1529 1529 1529 1529 1529 1529 1529 1529 1530 1530 1530 1530 1530 1530 1531 1531 1532 1532 1533 1533
1524 1524 1524 1524 1525 1525 1525 1526 1526 1525 1526 1526 1526 1527 1527 1527 1527 1527 1527 1527 1527 1527 1527 1528 1527 1527 1527 1527 1527 1527 1527 1527 1527 1527 1527 1527 1527 1528 1528 1529 1529 1530 1530
1523 1523 1523 1523 1523 1523 1524 1524 1524 1524 1524 1524 1525 1525 1525 1525 1526 1526 1526 1526 1526 1526 1526 1526 1526 1525 1525 1525 1525 1525 1524 1524 1524 1524 1524 1524 1524 1525 1525 1525 1526 1526 1527
1521 1521 1521 1521 1521 1521 1522 1522 1522 1522 1523 1523 1523 1524 1524 1524 1524 1524 1524 1524 1524 1524 1524 1524 1524 1524 1524 1523 1523 1522 1522 1522 1522 1522 1522 1522 1521 1521 1522 1522 1523 1523 1523
1519 1519 1519 1519 1520 1520 1520 1520 1520 1520 1521 1521 1522 1522 1522 1522 1522 1522 1522 1522 1522 1523 1522 1522 1522 1522 1522 1521 1520 1520 1520 1520 1519 1519 1519 1519 1519 1519 1519 1519 1519 1520 1520
1517 1517 1517 1517 1518 1518 1518 1518 1519 1519 1519 1519 1520 1520 1520 1520 1520 1520 1520 1520 1521 1521 1521 1520 1520 1520 1519 1519 1518 1518 1518 1517 1517 1517 1516 1516 1516 1516 1516 1516 1516 1516 1516
1514 1515 1515 1515 1516 1516 1516 1516 1517 1517 1517 1518 1518 1518 1518 1518 1518 1518 1518 1518 1518 1519 1519 1519 1518 1518 1517 1517 1516 1516 1516 1515 1515 1514 1514 1513 1513 1513 1513 1513 1513 1513 1513
1512 1513 1513 1513 1514 1514 1514 1514 1515 1516 1516 1516 1516 1516 1516 1516 1516 1516 1516 1516 1516 1516 1516 1516 1516 1516 1515 1514 1514 1513 1513 1512 1512 1512 1511 1510 1510 1510 1510 1510 1510 1510 1509
1510 1510 1511 1511 1512 1512 1512 1513 1513 1514 1514 1514 1514 1514 1514 1514 1514 1514 1514 1513 1513 1513 1513 1513 1513 1513 1512 1511 1511 1510 1510 1509 1509 1509 1508 1507 1507 1506 1506 1506 1506 1506 1506
1507 1508 1509 1509 1509 1510 1511 1511 1511 1512 1512 1512 1512 1512 1512 1512 1512 1511 1511 1511 1511 1511 1510 1510 1510 1509 1509 1508 1508 1508 1507 1507 1506 1506 1505 1504 1504 1504 1503 1503 1502 1502 1502
1505 1505 1506 1506 1507 1507 1508 1509 1509 1509 1510 1510 1510 1510 1510 1509 1509 1509 1508 1508 1508 1507 1508 1507 1506 1506 1505 1505 1505 1504 1504 1504 1503 1503 1503 1501 1501 1500 1500 1500 1499 1499 1499
1502 1502 1503 1504 1504 1505 1506 1506 1507 1507 1507 1507 1507 1507 1507 1507 1507 1506 1506 1505 1504 1504 1504 1504 1503 1503 1502 1502 1501 1501 1501 1500 1500 1500 1500 1498 1497 1497 1496 1496 1496 1496 1495
1499 1500 1500 1501 1501 1502 1503 1503 1504 1504 1504 1504 1504 1504 1504 1504 1504 1503 1503 1502 1501 1501 1501 1500 1500 1499 1499 1498 1498 1498 1497 1497 1496 1496 1496 1495 1494 1493 1493 1493 1493 1493 1492
1497 1498 1498 1499 1499 1499 1500 1500 1501 1501 1501 1500 1500 1500 1501 1500 1500 1500 1500 1499 1498 1498 1497 1497 1496 1496 1495 1495 1495 1494 1494 1493 1493 1493 1492 1492 1491 1491 1490 1490 1489 1489 1489